SES-5 (EGNOS/PRN 136)

Last updated on Nov. 13, 2019, 4:21 a.m. UTC

1 38652U 12036A   19316.11592505  .00000047  00000-0  00000+0 0  9994
2 38652   0.0250  97.0871 0002084 138.1322 222.4462  1.00269899 26913
UTC
Height (km)
Latitude
Longitude
Inclination
Orbital Period
UTC large
Height (km)
Speed (km/s)
/
Latitude / Longitude
Inclination (degrees)
Orbital Period (minutes)
Azimuth
Elevation
Range (km)
Doppler Factor
iOS Compass Heading
iOS Angle

Next 30 passes for location: Hong Kong

Rise time Rise Azimuth (degrees) Set time Set Azimuth (degrees) Duration Max altitude (degrees)

No matching passes for this satellites